TimeCDT,TemperatureF,Dew PointF,Humidity,Sea Level PressureIn,VisibilityMPH,Wind Direction,Wind SpeedMPH,Gust SpeedMPH,PrecipitationIn,Events,Conditions,WindDirDegrees,DateUTC
1:35 AM,55.4,42.8,63,29.94,10.0,Calm,Calm,-,N/A,,Clear,0,2013-05-09 06:35:00
1:55 AM,55.4,46.4,72,29.94,10.0,Calm,Calm,-,N/A,,Clear,0,2013-05-09 06:55:00
2:15 AM,53.6,44.6,72,29.94,10.0,North,3.5,-,N/A,,Scattered Clouds,10,2013-05-09 07:15:00
3:35 AM,53.6,46.4,77,29.94,10.0,Calm,Calm,-,N/A,,Clear,0,2013-05-09 08:35:00
4:15 AM,53.6,46.4,77,29.94,10.0,Calm,Calm,-,N/A,,Mostly Cloudy,0,2013-05-09 09:15:00
5:15 AM,53.6,42.8,67,29.94,10.0,ESE,4.6,-,N/A,,Scattered Clouds,110,2013-05-09 10:15:00
6:15 AM,55.4,44.6,67,29.96,3.0,ENE,3.5,-,N/A,,Haze,60,2013-05-09 11:15:00
8:15 AM,59.0,44.6,59,29.98,10.0,North,5.8,-,N/A,,Clear,10,2013-05-09 13:15:00
8:35 AM,60.8,44.6,55,29.97,10.0,NNE,8.1,-,N/A,,Clear,30,2013-05-09 13:35:00
9:15 AM,62.6,44.6,52,29.97,10.0,NE,5.8,-,N/A,,Clear,50,2013-05-09 14:15:00
9:35 AM,62.6,44.6,52,29.96,10.0,NE,9.2,-,N/A,,Scattered Clouds,50,2013-05-09 14:35:00
9:55 AM,62.6,44.6,52,29.95,3.0,NE,9.2,-,N/A,,Haze,50,2013-05-09 14:55:00
10:15 AM,62.6,44.6,52,29.96,2.0,ENE,6.9,-,N/A,,Haze,70,2013-05-09 15:15:00
10:35 AM,62.6,44.6,52,29.97,10.0,East,9.2,-,N/A,,Mostly Cloudy,100,2013-05-09 15:35:00
10:55 AM,62.6,44.6,52,29.98,10.0,SSE,4.6,-,N/A,,Mostly Cloudy,160,2013-05-09 15:55:00
11:15 AM,62.6,44.6,52,29.98,10.0,Calm,Calm,-,N/A,,Overcast,0,2013-05-09 16:15:00
11:35 AM,62.6,46.4,55,29.99,10.0,WSW,3.5,-,N/A,,Overcast,250,2013-05-09 16:35:00
11:55 AM,62.6,44.6,52,29.99,10.0,West,3.5,-,N/A,,Mostly Cloudy,280,2013-05-09 16:55:00
12:15 PM,62.6,44.6,52,30.00,10.0,Calm,Calm,-,N/A,,Scattered Clouds,0,2013-05-09 17:15:00
12:35 PM,62.6,46.4,55,29.99,10.0,North,5.8,-,N/A,,Mostly Cloudy,10,2013-05-09 17:35:00
12:55 PM,62.6,46.4,55,29.99,10.0,North,5.8,-,N/A,Rain,Light Rain,360,2013-05-09 17:55:00
1:15 PM,64.4,48.2,56,29.98,10.0,NE,5.8,-,N/A,,Mostly Cloudy,40,2013-05-09 18:15:00
1:55 PM,62.6,46.4,55,29.98,10.0,SSE,5.8,-,N/A,,Clear,160,2013-05-09 18:55:00
2:35 PM,64.4,44.6,49,29.98,10.0,ESE,5.8,-,N/A,,Scattered Clouds,110,2013-05-09 19:35:00
2:55 PM,62.6,44.6,52,29.98,10.0,ESE,5.8,-,N/A,,Scattered Clouds,110,2013-05-09 19:55:00
3:15 PM,62.6,46.4,55,29.98,10.0,East,5.8,-,N/A,Rain,Light Rain,100,2013-05-09 20:15:00
3:35 PM,60.8,50.0,68,29.98,10.0,SE,4.6,-,N/A,Rain,Light Rain,130,2013-05-09 20:35:00
3:55 PM,60.8,50.0,68,29.99,10.0,ESE,5.8,-,N/A,Rain,Light Rain,110,2013-05-09 20:55:00
4:15 PM,60.8,48.2,63,29.99,10.0,ESE,5.8,-,N/A,,Light Drizzle,120,2013-05-09 21:15:00
4:35 PM,59.0,50.0,72,29.99,10.0,East,6.9,-,N/A,Rain,Rain,100,2013-05-09 21:35:00
4:55 PM,59.0,51.8,77,29.99,10.0,SE,4.6,-,0.02,Rain,Rain,130,2013-05-09 21:55:00
5:15 PM,59.0,50.0,72,30.00,7.0,ENE,10.4,-,0.02,Rain,Light Rain,60,2013-05-09 22:15:00
5:35 PM,57.2,50.0,77,30.00,5.0,NE,12.7,17.3,0.04,Rain,Light Rain,50,2013-05-09 22:35:00
5:55 PM,55.4,50.0,82,30.00,4.0,NE,9.2,-,0.06,Rain,Rain,50,2013-05-09 22:55:00
6:15 PM,55.4,50.0,82,30.00,5.0,NNE,10.4,-,0.02,Rain,Light Rain,30,2013-05-09 23:15:00
6:35 PM,53.6,50.0,88,30.00,7.0,NE,13.8,19.6,0.04,Rain,Light Rain,50,2013-05-09 23:35:00
6:55 PM,53.6,50.0,88,30.00,10.0,NE,15.0,24.2,0.06,Rain,Light Rain,50,2013-05-09 23:55:00
7:35 PM,50.0,46.4,87,30.01,10.0,NE,17.3,21.9,0.04,Rain,Light Rain,40,2013-05-10 00:35:00
7:55 PM,50.0,46.4,87,30.01,10.0,NE,21.9,25.3,0.06,Rain,Light Rain,40,2013-05-10 00:55:00
8:15 PM,46.4,44.6,93,30.01,7.0,NNE,26.5,33.4,0.02,Rain,Light Rain,30,2013-05-10 01:15:00
8:35 PM,44.6,42.8,93,30.03,7.0,NE,19.6,28.8,0.04,Rain,Light Rain,40,2013-05-10 01:35:00
8:55 PM,44.6,42.8,93,30.03,10.0,NNE,21.9,28.8,0.06,Rain,Light Rain,30,2013-05-10 01:55:00
9:15 PM,44.6,41.0,87,30.03,10.0,NE,21.9,26.5,0.02,Rain,Light Rain,40,2013-05-10 02:15:00
9:35 PM,42.8,41.0,93,30.03,10.0,NNE,19.6,28.8,0.04,Rain,Rain,30,2013-05-10 02:35:00
9:55 PM,42.8,41.0,93,30.04,10.0,NE,18.4,25.3,0.06,Rain,Light Rain,40,2013-05-10 02:55:00
10:15 PM,42.8,41.0,93,30.04,10.0,NNE,18.4,21.9,N/A,Rain,Light Rain,30,2013-05-10 03:15:00
10:35 PM,42.8,41.0,93,30.04,10.0,NNE,18.4,25.3,0.02,Rain,Rain,30,2013-05-10 03:35:00
10:55 PM,42.8,41.0,93,30.04,10.0,NNE,18.4,25.3,0.04,,Drizzle,30,2013-05-10 03:55:00
11:15 PM,42.8,39.2,87,30.04,10.0,NE,19.6,26.5,N/A,Rain,Rain,40,2013-05-10 04:15:00
11:35 PM,42.8,39.2,87,30.04,10.0,NE,16.1,24.2,0.02,Rain,Light Rain,40,2013-05-10 04:35:00
11:55 PM,42.8,39.2,87,30.03,10.0,NE,19.6,25.3,0.02,Rain,Light Rain,40,2013-05-10 04:55:00